| time (UTC) | temp C | wind direction | speed KPH | gust KPH | rain 1hr cm | rain 24hr cm | rain mn cm | humidity % | barometer mb |
| 20260509101210 | 11 | 277 | 0.0 | 0.0 | 0.00 | 0.25 | 0.00 | 94 | 1010.6 |
| 20260509100212 | 11 | 209 | 0.0 | 3.2 | 0.00 | 0.25 | 0.00 | 94 | 1010.6 |
| 20260509095211 | 11 | 5 | 0.0 | 1.6 | 0.00 | 0.25 | 0.00 | 95 | 1010.6 |
| 20260509094210 | 11 | 5 | 0.0 | 3.2 | 0.00 | 0.25 | 0.00 | 95 | 1010.7 |
| 20260509093210 | 11 | 5 | 0.0 | 3.2 | 0.00 | 0.25 | 0.00 | 95 | 1010.7 |
| 20260509092210 | 11 | 296 | 0.0 | 0.0 | 0.00 | 0.25 | 0.00 | 94 | 1010.8 |
| 20260509091211 | 11 | 296 | 0.0 | 0.0 | 0.00 | 0.25 | 0.00 | 94 | 1010.8 |
| 20260509090210 | 11 | 296 | 0.0 | 0.0 | 0.00 | 0.25 | 0.00 | 95 | 1010.9 |
| 20260509085645 | 11 | 296 | 0.0 | 0.0 | 0.00 | 0.25 | 0.00 | 94 | 1010.9 |
| 20260509084206 | 11 | 296 | 0.0 | 0.0 | 0.00 | 0.25 | 0.00 | 94 | 1010.9 |
| 20260509083206 | 11 | 296 | 0.0 | 0.0 | 0.00 | 0.25 | 0.00 | 94 | 1011.1 |
| 20260509082204 | 11 | 296 | 0.0 | 0.0 | 0.00 | 0.25 | 0.00 | 94 | 1011.1 |
| 20260509081204 | 11 | 252 | 0.0 | 0.0 | 0.00 | 0.25 | 0.00 | 94 | 1011.2 |
| 20260509080206 | 11 | 252 | 0.0 | 0.0 | 0.00 | 0.25 | 0.00 | 93 | 1011.2 |
| 20260509075205 | 11 | 252 | 0.0 | 0.0 | 0.00 | 0.25 | 0.00 | 93 | 1011.3 |
| 20260509074648 | 12 | 252 | 0.0 | 1.6 | 0.00 | 0.25 | 0.00 | 93 | 1011.3 |
| 20260509073204 | 12 | 293 | 0.0 | 1.6 | 0.00 | 0.25 | 0.00 | 94 | 1011.3 |
| 20260509072204 | 12 | 293 | 0.0 | 3.2 | 0.00 | 0.25 | 0.00 | 93 | 1011.4 |
| 20260509071205 | 12 | 263 | 0.0 | 1.6 | 0.00 | 0.25 | 0.00 | 93 | 1011.3 |
| 20260509070204 | 12 | 263 | 0.0 | 0.0 | 0.00 | 0.25 | 0.00 | 93 | 1011.1 |
| 20260509064201 | 12 | 263 | 0.0 | 0.0 | 0.00 | 0.25 | 0.00 | 92 | 1011.3 |
| 20260509063650 | 12 | 320 | 0.0 | 1.6 | 0.00 | 0.25 | 0.00 | 93 | 1011.3 |
| 20260509062202 | 12 | 320 | 0.0 | 3.2 | 0.00 | 0.25 | 0.00 | 91 | 1011.4 |
| 20260509061202 | 12 | 289 | 0.0 | 0.0 | 0.00 | 0.25 | 0.00 | 92 | 1011.3 |
| 20260509060203 | 12 | 289 | 0.0 | 0.0 | 0.00 | 0.25 | 0.00 | 92 | 1011.3 |
| 20260509055201 | 13 | 289 | 0.0 | 1.6 | 0.00 | 0.25 | 0.00 | 91 | 1011.5 |
| 20260509054201 | 13 | 309 | 0.0 | 3.2 | 0.00 | 0.25 | 0.00 | 90 | 1011.6 |
| 20260509053200 | 13 | 309 | 1.6 | 4.8 | 0.00 | 0.25 | 0.00 | 90 | 1011.6 |
| 20260509052200 | 13 | 335 | 4.8 | 8.0 | 0.00 | 0.25 | 0.00 | 90 | 1011.5 |
| 20260509051632 | 13 | 311 | 4.8 | 11.3 | 0.00 | 0.25 | 0.00 | 90 | 1011.5 |
| 20260509050644 | 13 | 327 | 6.4 | 11.3 | 0.00 | 0.25 | 0.00 | 90 | 1011.7 |
| 20260509045154 | 13 | 331 | 9.7 | 12.9 | 0.00 | 0.25 | 0.25 | 89 | 1011.5 |
| 20260509044153 | 14 | 321 | 4.8 | 9.7 | 0.00 | 0.25 | 0.25 | 87 | 1011.3 |
| 20260509043152 | 15 | 204 | 4.8 | 9.7 | 0.00 | 0.25 | 0.25 | 86 | 1010.9 |
| 20260509042153 | 14 | 217 | 3.2 | 8.0 | 0.00 | 0.25 | 0.25 | 88 | 1010.9 |
| 20260509041639 | 14 | 203 | 3.2 | 8.0 | 0.00 | 0.25 | 0.25 | 86 | 1010.8 |
| 20260509040639 | 15 | 261 | 3.2 | 6.4 | 0.00 | 0.25 | 0.25 | 85 | 1010.6 |
| 20260509035636 | 15 | 198 | 3.2 | 6.4 | 0.00 | 0.25 | 0.25 | 85 | 1010.6 |
| 20260509034150 | 15 | 223 | 4.8 | 8.0 | 0.00 | 0.25 | 0.25 | 83 | 1010.3 |
| 20260509033631 | 16 | 229 | 3.2 | 8.0 | 0.00 | 0.25 | 0.25 | 81 | 1010.0 |
| 20260509032146 | 16 | 219 | 6.4 | 12.9 | 0.00 | 0.25 | 0.25 | 81 | 1009.9 |
| 20260509031145 | 16 | 184 | 11.3 | 20.9 | 0.00 | 0.25 | 0.25 | 82 | 1009.7 |
| 20260509030629 | 16 | 169 | 14.5 | 25.7 | 0.00 | 0.25 | 0.25 | 82 | 1009.5 |
| 20260509025148 | 16 | 177 | 16.1 | 27.4 | 0.00 | 0.25 | 0.25 | 83 | 1009.4 |
| 20260509024147 | 16 | 173 | 16.1 | 25.7 | 0.08 | 0.25 | 0.25 | 83 | 1009.1 |
| 20260509023144 | 16 | 170 | 14.5 | 27.4 | 0.13 | 0.25 | 0.25 | 84 | 1009.1 |
| 20260509022144 | 17 | 163 | 20.9 | 35.4 | 0.20 | 0.25 | 0.25 | 83 | 1009.0 |
| 20260509021144 | 16 | 188 | 20.9 | 41.8 | 0.20 | 0.25 | 0.25 | 86 | 1008.6 |
| 20260509020145 | 16 | 179 | 25.7 | 41.8 | 0.23 | 0.25 | 0.25 | 82 | 1009.6 |
| 20260509015143 | 16 | 184 | 16.1 | 33.8 | 0.23 | 0.25 | 0.23 | 83 | 1009.5 |
| 20260509014146 | 17 | 205 | 3.2 | 9.7 | 0.18 | 0.18 | 0.18 | 87 | 1011.9 |
| 20260509013139 | 17 | 231 | 1.6 | 6.4 | 0.10 | 0.10 | 0.10 | 84 | 1011.9 |
| 20260509012625 | 17 | 267 | 3.2 | 6.4 | 0.05 | 0.05 | 0.05 | 80 | 1011.3 |
| 20260509011629 | 17 | 322 | 3.2 | 4.8 | 0.05 | 0.05 | 0.03 | 82 | 1010.7 |
| 20260509010140 | 18 | 300 | 3.2 | 4.8 | 0.03 | 0.03 | 0.03 | 77 | 1010.4 |
| 20260509005141 | 19 | 340 | 6.4 | 16.1 | 0.03 | 0.03 | 0.03 | 71 | 1010.4 |
| 20260509004142 | 20 | 325 | 8.0 | 12.9 | 0.00 | 0.00 | 0.00 | 67 | 1010.7 |
| 20260509002139 | 20 | 304 | 3.2 | 4.8 | 0.00 | 0.00 | 0.00 | 63 | 1009.7 |
| 20260509001139 | 21 | 301 | 1.6 | 4.8 | 0.00 | 0.00 | 0.00 | 64 | 1009.3 |
| 20260509000134 | 21 | 248 | 0.0 | 1.6 | 0.00 | 0.00 | 0.00 | 59 | 1009.0 |
| 20260508235131 | 22 | 162 | 0.0 | 1.6 | 0.00 | 0.00 | 0.00 | 60 | 1009.0 |
| 20260508234131 | 22 | 296 | 1.6 | 3.2 | 0.00 | 0.00 | 0.00 | 56 | 1009.2 |
| 20260508233614 | 22 | 284 | 1.6 | 9.7 | 0.00 | 0.00 | 0.00 | 53 | 1009.1 |
| 20260508232128 | 23 | 274 | 4.8 | 11.3 | 0.00 | 0.00 | 0.00 | 51 | 1009.2 |
| 20260508231126 | 23 | 301 | 3.2 | 9.7 | 0.00 | 0.00 | 0.00 | 49 | 1008.9 |
| 20260508230125 | 23 | 225 | 3.2 | 11.3 | 0.00 | 0.00 | 0.00 | 48 | 1008.8 |
| 20260508225124 | 23 | 209 | 4.8 | 16.1 | 0.00 | 0.00 | 0.00 | 48 | 1009.0 |
| 20260508224610 | 23 | 207 | 8.0 | 16.1 | 0.00 | 0.00 | 0.00 | 49 | 1008.9 |
| 20260508223119 | 23 | 180 | 8.0 | 16.1 | 0.00 | 0.00 | 0.00 | 48 | 1008.7 |
| 20260508222121 | 24 | 230 | 9.7 | 17.7 | 0.00 | 0.00 | 0.00 | 47 | 1008.7 |
| 20260508221117 | 24 | 194 | 12.9 | 22.5 | 0.00 | 0.00 | 0.00 | 48 | 1008.9 |
| 20260508220117 | 24 | 211 | 9.7 | 19.3 | 0.00 | 0.00 | 0.00 | 48 | 1008.9 |
| 20260508215115 | 24 | 205 | 8.0 | 16.1 | 0.00 | 0.00 | 0.00 | 47 | 1009.0 |
| 20260508214116 | 24 | 192 | 11.3 | 20.9 | 0.00 | 0.00 | 0.00 | 50 | 1009.0 |
| 20260508213115 | 24 | 175 | 14.5 | 25.7 | 0.00 | 0.00 | 0.00 | 49 | 1009.2 |
| 20260508212115 | 24 | 205 | 11.3 | 24.1 | 0.00 | 0.00 | 0.00 | 51 | 1009.3 |
| 20260508211115 | 24 | 179 | 11.3 | 22.5 | 0.00 | 0.00 | 0.00 | 51 | 1009.2 |
| 20260508210110 | 24 | 190 | 12.9 | 27.4 | 0.00 | 0.00 | 0.00 | 51 | 1009.5 |
| 20260508205110 | 24 | 211 | 12.9 | 22.5 | 0.00 | 0.00 | 0.00 | 52 | 1009.5 |
| 20260508204109 | 24 | 155 | 12.9 | 24.1 | 0.00 | 0.00 | 0.00 | 50 | 1009.6 |
| 20260508203556 | 24 | 227 | 14.5 | 29.0 | 0.00 | 0.00 | 0.00 | 48 | 1009.6 |
| 20260508202107 | 24 | 194 | 14.5 | 30.6 | 0.00 | 0.00 | 0.00 | 49 | 1009.7 |
| 20260508201107 | 24 | 181 | 12.9 | 24.1 | 0.00 | 0.00 | 0.00 | 48 | 1009.7 |
| 20260508200108 | 23 | 157 | 12.9 | 27.4 | 0.00 | 0.00 | 0.00 | 48 | 1010.0 |
| 20260508195107 | 23 | 190 | 12.9 | 27.4 | 0.00 | 0.00 | 0.00 | 46 | 1010.5 |
| 20260508194109 | 24 | 235 | 11.3 | 25.7 | 0.00 | 0.00 | 0.00 | 47 | 1010.4 |
| 20260508193109 | 23 | 161 | 12.9 | 27.4 | 0.00 | 0.00 | 0.00 | 44 | 1010.5 |
| 20260508192108 | 23 | 172 | 12.9 | 22.5 | 0.00 | 0.00 | 0.00 | 48 | 1010.5 |
| 20260508191109 | 23 | 185 | 12.9 | 25.7 | 0.00 | 0.00 | 0.00 | 50 | 1010.7 |
| 20260508190109 | 23 | 189 | 14.5 | 24.1 | 0.00 | 0.00 | 0.00 | 46 | 1010.9 |
| 20260508185543 | 23 | 190 | 12.9 | 30.6 | 0.00 | 0.00 | 0.00 | 52 | 1010.8 |
| 20260508183105 | 23 | 198 | 11.3 | 22.5 | 0.00 | 0.00 | 0.00 | 49 | 1011.1 |
| 20260508182107 | 23 | 196 | 14.5 | 25.7 | 0.00 | 0.00 | 0.00 | 51 | 1011.4 |
| 20260508181549 | 22 | 166 | 11.3 | 20.9 | 0.00 | 0.00 | 0.00 | 51 | 1011.5 |
| 20260508180537 | 22 | 200 | 8.0 | 17.7 | 0.00 | 0.00 | 0.00 | 48 | 1011.8 |
| 20260508175103 | 22 | 176 | 12.9 | 22.5 | 0.00 | 0.00 | 0.00 | 52 | 1012.0 |
| 20260508174103 | 22 | 235 | 12.9 | 25.7 | 0.00 | 0.00 | 0.00 | 49 | 1012.1 |
| 20260508173552 | 22 | 174 | 11.3 | 27.4 | 0.00 | 0.00 | 0.00 | 51 | 1012.4 |
| 20260508172542 | 21 | 164 | 11.3 | 19.3 | 0.00 | 0.00 | 0.00 | 50 | 1012.5 |
| 20260508171103 | 21 | 186 | 9.7 | 25.7 | 0.00 | 0.00 | 0.00 | 50 | 1012.8 |
| 20260508165103 | 21 | 189 | 11.3 | 25.7 | 0.00 | 0.00 | 0.00 | 51 | 1013.4 |
| 20260508164103 | 21 | 186 | 14.5 | 29.0 | 0.00 | 0.00 | 0.00 | 49 | 1013.6 |
| 20260508163103 | 21 | 180 | 14.5 | 29.0 | 0.00 | 0.00 | 0.00 | 51 | 1013.4 |
| 20260508162103 | 21 | 202 | 12.9 | 24.1 | 0.00 | 0.00 | 0.00 | 54 | 1013.6 |
| 20260508161102 | 21 | 175 | 12.9 | 24.1 | 0.00 | 0.00 | 0.00 | 56 | 1013.8 |
| 20260508155059 | 20 | 189 | 14.5 | 25.7 | 0.00 | 0.00 | 0.00 | 56 | 1014.2 |
| 20260508154101 | 20 | 169 | 17.7 | 25.7 | 0.00 | 0.00 | 0.00 | 59 | 1014.2 |
| 20260508153056 | 19 | 193 | 16.1 | 33.8 | 0.00 | 0.00 | 0.00 | 60 | 1014.3 |
| 20260508152054 | 19 | 213 | 11.3 | 24.1 | 0.00 | 0.00 | 0.00 | 62 | 1014.6 |
| 20260508151058 | 18 | 161 | 12.9 | 24.1 | 0.00 | 0.00 | 0.00 | 66 | 1014.6 |
| 20260508150544 | 18 | 179 | 12.9 | 22.5 | 0.00 | 0.00 | 0.00 | 67 | 1014.7 |
| 20260508145054 | 18 | 234 | 16.1 | 29.0 | 0.00 | 0.00 | 0.00 | 70 | 1014.8 |
| 20260508144050 | 17 | 175 | 12.9 | 25.7 | 0.00 | 0.00 | 0.00 | 68 | 1014.8 |
| 20260508143527 | 17 | 223 | 14.5 | 25.7 | 0.00 | 0.00 | 0.00 | 71 | 1014.8 |
| 20260508142051 | 16 | 157 | 17.7 | 37.0 | 0.00 | 0.00 | 0.00 | 72 | 1014.8 |
| 20260508141050 | 16 | 171 | 14.5 | 27.4 | 0.00 | 0.00 | 0.00 | 75 | 1014.9 |
| 20260508140051 | 16 | 179 | 11.3 | 20.9 | 0.00 | 0.00 | 0.00 | 77 | 1014.9 |
| 20260508135052 | 15 | 192 | 11.3 | 22.5 | 0.00 | 0.00 | 0.00 | 80 | 1015.0 |
| 20260508134528 | 15 | 180 | 9.7 | 22.5 | 0.00 | 0.00 | 0.00 | 81 | 1015.1 |
| 20260508133052 | 14 | 196 | 8.0 | 11.3 | 0.00 | 0.00 | 0.00 | 82 | 1015.0 |
| 20260508132048 | 13 | 165 | 8.0 | 16.1 | 0.00 | 0.00 | 0.00 | 83 | 1015.0 |
| 20260508131047 | 13 | 188 | 6.4 | 11.3 | 0.00 | 0.00 | 0.00 | 85 | 1015.1 |
| 20260508130042 | 12 | 184 | 3.2 | 6.4 | 0.00 | 0.00 | 0.00 | 84 | 1015.1 |
| 20260508125042 | 12 | 181 | 3.2 | 9.7 | 0.00 | 0.00 | 0.00 | 84 | 1015.0 |
| 20260508124042 | 11 | 209 | 0.0 | 0.0 | 0.00 | 0.00 | 0.00 | 84 | 1014.9 |
| 20260508123040 | 11 | 196 | 0.0 | 0.0 | 0.00 | 0.00 | 0.00 | 83 | 1014.9 |
| 20260508122038 | 10 | 183 | 0.0 | 0.0 | 0.00 | 0.00 | 0.00 | 86 | 1014.9 |
| 20260508121038 | 10 | 183 | 0.0 | 0.0 | 0.00 | 0.00 | 0.00 | 86 | 1014.8 |
| 20260508120517 | 9 | 242 | 0.0 | 0.0 | 0.00 | 0.00 | 0.00 | 86 | 1015.0 |
| 20260508115038 | 8 | 242 | 0.0 | 0.0 | 0.00 | 0.00 | 0.00 | 86 | 1014.9 |
| 20260508114034 | 8 | 171 | 0.0 | 0.0 | 0.00 | 0.00 | 0.00 | 88 | 1014.6 |
| 20260508113030 | 8 | 171 | 0.0 | 0.0 | 0.00 | 0.00 | 0.00 | 87 | 1014.6 |
| 20260508112031 | 8 | 171 | 0.0 | 0.0 | 0.00 | 0.00 | 0.00 | 88 | 1014.5 |
| 20260508110032 | 7 | 169 | 0.0 | 0.0 | 0.00 | 0.00 | 0.00 | 91 | 1014.2 |
| 20260508105031 | 7 | 169 | 0.0 | 0.0 | 0.00 | 0.00 | 0.00 | 91 | 1014.2 |
| 20260508104030 | 7 | 169 | 0.0 | 0.0 | 0.00 | 0.00 | 0.00 | 89 | 1014.2 |
| 20260508103033 | 7 | 169 | 0.0 | 0.0 | 0.00 | 0.00 | 0.00 | 89 | 1014.1 |
| 20260508102030 | 7 | 169 | 0.0 | 0.0 | 0.00 | 0.00 | 0.00 | 90 | 1014.1 |